Location: Dover
(39.1580°N, 75.5250°W)
Time: 20:12:29
(UTC-04:00)

ISS - All Passes

Search period start: 16 October 2017 00:00
Search period end: 26 October 2017 00:00
Orbit: 401 x 408 km, 51.6° (Epoch: 17 October)

Date Brightness Start Highest point End Pass type
(mag) Time Alt. Az. Time Alt. Az. Time Alt. Az.
16 Oct - 11:15:46 10° S 11:18:27 24° SE 11:21:08 10° ENE daylight
16 Oct - 12:51:47 10° W 12:54:48 34° NNW 12:57:50 10° NE daylight
16 Oct - 14:30:56 10° NNW 14:32:03 11° NNW 14:33:11 10° N daylight
16 Oct - 16:09:04 10° N 16:09:44 10° N 16:10:25 10° NNE daylight
16 Oct - 17:44:13 10° NNW 17:47:06 27° NNE 17:49:57 10° E daylight
16 Oct - 19:20:35 10° WNW 19:23:36 34° SW 19:26:36 10° SSE visible
17 Oct - 10:24:58 10° SSE 10:26:24 12° SE 10:27:48 10° ESE daylight
17 Oct - 11:59:15 10° WSW 12:02:29 63° NW 12:05:43 10° NE daylight
17 Oct - 13:37:37 10° NW 13:39:29 14° NNW 13:41:21 10° NNE daylight
17 Oct - 16:52:14 10° NNW 16:54:38 18° NNE 16:57:02 10° ENE daylight
17 Oct - 18:28:08 10° NW 18:31:25 72° SW 18:34:40 10° SE daylight
18 Oct - 11:07:00 10° SW 11:10:13 64° SE 11:13:28 10° ENE daylight
18 Oct - 12:44:30 10° WNW 12:46:57 19° NNW 12:49:25 10° NNE daylight
18 Oct - 16:00:19 10° NNW 16:02:06 14° NNE 16:03:53 10° NE daylight
18 Oct - 17:35:54 10° NW 17:39:09 57° NE 17:42:22 10° ESE daylight
18 Oct - 19:13:31 10° W 19:15:16 14° SW 19:17:02 10° SSW visible
19 Oct - 10:15:08 10° SSW 10:18:02 30° SE 10:20:57 10° ENE daylight
19 Oct - 11:51:36 10° W 11:54:29 29° NNW 11:57:24 10° NNE daylight
19 Oct - 13:31:01 10° NNW 13:31:48 11° N 13:32:36 10° N daylight
19 Oct - 15:08:29 10° N 15:09:30 11° N 15:10:30 10° NNE daylight
19 Oct - 16:43:47 10° NW 16:46:46 32° NNE 16:49:45 10° E daylight
19 Oct - 18:20:21 10° WNW 18:23:10 27° SW 18:25:59 10° SSE daylight
20 Oct - 09:23:52 10° S 09:25:55 16° SE 09:27:57 10° E daylight
20 Oct - 10:58:56 10° WSW 11:02:06 50° NW 11:05:17 10° NE daylight
20 Oct - 12:37:33 10° NW 12:39:11 13° NNW 12:40:48 10° NNE daylight
20 Oct - 15:51:44 10° NNW 15:54:18 21° NNE 15:56:53 10° ENE daylight
20 Oct - 17:27:47 10° WNW 17:30:59 55° SW 17:34:11 10° SE daylight
21 Oct - 10:06:31 10° SW 10:09:47 83° SE 10:13:02 10° NE daylight
21 Oct - 11:44:20 10° WNW 11:46:36 17° NNW 11:48:52 10° NNE daylight
21 Oct - 14:59:45 10° NNW 15:01:45 15° NNE 15:03:45 10° ENE daylight
21 Oct - 16:35:26 10° NW 16:38:42 73° NE 16:41:58 10° ESE daylight
21 Oct - 18:13:53 10° WSW 18:14:44 11° SW 18:15:35 10° SW daylight
22 Oct - 09:14:28 10° SSW 09:17:31 39° SE 09:20:35 10° ENE daylight
22 Oct - 10:51:18 10° W 10:54:04 25° NNW 10:56:51 10° NNE daylight
22 Oct - 12:31:08 10° NNW 12:31:28 10° N 12:31:46 10° N daylight
22 Oct - 14:07:50 10° N 14:09:08 12° NNE 14:10:26 10° NE daylight
22 Oct - 15:43:13 10° NW 15:46:19 38° NNE 15:49:25 10° ESE daylight
22 Oct - 17:20:04 10° W 17:22:37 21° SW 17:25:11 10° S daylight
23 Oct - 08:22:54 10° S 08:25:20 20° SE 08:27:46 10° E daylight
23 Oct - 09:58:31 10° WSW 10:01:36 40° NNW 10:04:42 10° NE daylight
23 Oct - 11:37:25 10° NW 11:38:46 12° NNW 11:40:08 10° N daylight
23 Oct - 14:51:07 10° NNW 14:53:51 24° NNE 14:56:35 10° E daylight
23 Oct - 16:27:19 10° WNW 16:30:25 42° SW 16:33:32 10° SSE daylight
24 Oct - 09:05:58 10° SW 09:09:13 78° NW 09:12:29 10° NE daylight
24 Oct - 10:44:04 10° WNW 10:46:08 15° NNW 10:48:11 10° NNE daylight
24 Oct - 13:59:04 10° NNW 14:01:17 17° NNE 14:03:29 10° ENE daylight
24 Oct - 15:34:52 10° NW 15:38:08 89° SW 15:41:24 10° SE daylight
25 Oct - 08:13:44 10° SW 08:16:54 50° SE 08:20:04 10° ENE daylight
25 Oct - 09:50:56 10° WNW 09:53:32 22° NNW 09:56:09 10° NNE daylight
25 Oct - 13:07:06 10° NNW 13:08:39 13° NNE 13:10:12 10° NE daylight
25 Oct - 14:42:35 10° NW 14:45:45 47° NNE 14:48:55 10° ESE daylight
25 Oct - 16:19:46 10° W 16:21:57 17° SW 16:24:09 10° S daylight
